Location: Kergrach
(48.3833°N, 4.5167°W)
Time: 17:47:05
(UTC+00:00)

Cosmos 1339 Rocket - Pass Details

Date: 18 February 2020
Orbit: 943 x 1005 km, 82.9° (Epoch: 28 March)

Event Time Altitude Azimuth Distance (km) Brightness Sun altitude
Exits shadow 05:08:00 12° 196° (SSW) 2,514 6.4 -22.7°
Maximum altitude 05:13:40 72° 280° (W) 993 4.3 -21.8°
Drops below altitude 10° 05:19:48 10° 6° (N) 2,690 6.9 -20.8°
Sets 05:22:20 0° 8° (N) 3,647 7.7 -20.4°
